Al Udeid Air Base

Airport
ICAO code: 
OTBH
IATA Code: 
IUD
Summary
ICAO Region: 
MID
Territory: 
Location: 
Al-Udeid, Ad Dawhah
Serving: 
Al-Udeid Air Base
Elevation: 
130 ft
Coordinates: 
Aerial View: 
25° 7' 0.822" N, 51° 18' 54.737" E
Metar
Observation
OTBH 190956Z 35012KT 9999 SCT100 22/11 A3008 RMK AO2A SLP188 T02150112 $
Station
Al Udeid
Date/Time
2022-01-19 09:56:00
Wind direction
350°
Wind speed
12 kts
Lowest cloud amount
scattered clouds
Temperature
21.5°C
Dew point
11.2°C
Humidity
51%
Weather condition
n/a

Al Udeid Air Base is a military base southwest of Doha, Qatar, also known as Abu Nakhlah Airport. It houses Qatari Air Force, U.S. Air Force, and Royal Air Force personnel and assets.

Climatology

Hot Desert Climate (Köppen climate classification BWh)

Runways

Designator Length Width Surface Rops
16/34 3750 45 ASP Yes/Yes
Airport map: 
Aerial View: 

SKYbrary Partners:

Safety knowledge contributed by: